Regional Weather Roundup
Issued by NWS Albany, NY

Home | Current Version | Previous Version | Text Only | Print | Product List | Glossary On
Versions: 1 2 3 4 5 6 7 8 9 10 11 12 13 14 15 16 17 18 19 20 21 22 23 24 25 26 27
000
ASUS41 KALY 181310
RWRALY

NEW YORK STATE HOURLY WEATHER ROUNDUP
NATIONAL WEATHER SERVICE ALBANY NY
800 AM EST THU JAN 18 2018

NOTE: "FAIR" INDICATES FEW OR NO CLOUDS BELOW 12,000 FEET WITH NO
SIGNIFICANT WEATHER AND/OR NO OBSTRUCTIONS TO VISIBILITY.

NYZ032-033-038>043-046>054-057>066-NYZ062>081-082-084-181400-
EAST


CITY           SKY/WX    TMP DP  RH WIND       PRES   REMARKS
ALBANY         FAIR       4  -1  80 CALM      30.06S
GLENS FALLS    FAIR      -6  -9  86 CALM      30.04S FOG
POUGHKEEPSIE   FAIR       0  -4  83 CALM      30.08R
NEWBURGH       CLEAR      9   5  85 CALM      30.07R
MONTGOMERY     FAIR      -1  -5  82 CALM      30.05R
WHITE PLAINS   FAIR      17   9  70 NW8       30.04R WCI   7
ISLIP          FAIR      21  14  74 NW12      30.01F WCI   9
NEW YORK CITY  FAIR      22   9  57 NW15      30.07F WCI   9
CENTRAL PARK   FAIR      21   8  57 W8        30.09S WCI  11
$$

NYZ005>009-017-018-044>046-055-056-181400-
CENTRAL


CITY           SKY/WX    TMP DP  RH WIND       PRES   REMARKS
FULTON         CLOUDY    12   5  73 SW8       30.04F WCI   0
SYRACUSE       FAIR      -3  -5  90 CALM      30.06S
ROME           CLOUDY    -3  -6  87 CALM      30.07F
ELMIRA         FAIR      -3  -6  87 CALM      30.06R
BINGHAMTON     FAIR       5   0  79 W9        29.95F WCI  -9
MONTICELLO     FAIR      11   5  77 W7        29.98R WCI   0
$$

NYZ026>034-041>043-087-181400-
NORTH


CITY           SKY/WX    TMP DP  RH WIND       PRES   REMARKS
WATERTOWN      LGT SNOW  18  14  84 S10G18    29.99S FOG     WCI   6
FORT DRUM      NOT AVBL
OGDENSBURG     CLOUDY    23  20  87 S9        29.96S WCI  13
MASSENA        CLOUDY    23  19  85 SW15      29.96S WCI  10
SARANAC LAKE   LGT SNOW  17  15  92 SW8       29.86F FOG     WCI   7
PLATTSBURGH    CLOUDY    19  14  81 SE9       29.97S WCI   8
$$

NYZ001>004-010>016-019>021-085-181400-
WEST


CITY           SKY/WX    TMP DP  RH WIND       PRES   REMARKS
NIAGARA FALLS  CLOUDY    21  13  71 SW24G31   30.05R WCI   4
BUFFALO        LGT SNOW  18  12  77 SW18G36   30.04F BLWGSNOWWCI   2
DUNKIRK        MOCLDY    15   6  67 SW15      30.09F WCI   0
JAMESTOWN      FAIR       6   2  83 SW13      30.03F WCI -10
WELLSVILLE     FAIR       8   2  76 W9G18     29.97R WCI  -5
ROCHESTER      FLURRIES  18   9  68 W17       30.05S WCI   3
PENN YAN       FAIR      15   1  53 SW12      30.03S WCI   2
$$

             KEY
       WCI = WIND CHILL INDEX
       VSB = VISIBILITY
       HX  = HEAT INDEX
$$




USA.gov is the U.S. government's official web portal to all federal, state and local government web resources and services.